カタログに戻る

STARLINK-35784

運用中通信VLEO
NORAD 67093·PAYLOAD·🇺🇸 United States

打ち上げ Dec 14, 2025 から Vandenberg Space Force Base

Loading…

次のパス (今後24時間)

TLE

最新Source: CelesTrak SupGP

元期: Sep 14, 2026, 21:21 UTC

1 67093C 25298U   26257.89006944  .00061795  00000+0  51785-2 0  2575
2 67093  69.9995 257.3173 0004118 264.9313 333.4796 14.98297561    12

AllMySatでSTARLINK-35784をリアルタイム追跡

Download on the App Store